CW0060 Weather Reports


Display with metric or nautical units.
time (UTC)temp
F
wind
direction
speed
MPH
gust
MPH
rain 1hr
in
rain 24hr
in
rain mn
in
humidity
%
barometer
mb
20260507083205 47 316 5.0 9.0 0.00 0.33 0.09 94 1012.2
20260507082705 47 279 5.0 11.0 0.00 0.33 0.09 94 1012.2
20260507081706 47 300 5.0 11.0 0.00 0.33 0.09 94 1012.0
20260507081205 47 312 4.0 10.0 0.00 0.33 0.09 94 1012.0
20260507080705 47 257 4.0 7.0 0.00 0.33 0.09 94 1012.0
20260507080205 47 286 4.0 9.0 0.00 0.33 0.09 94 1011.9
20260507075705 47 274 4.0 9.0 0.00 0.33 0.09 94 1011.9
20260507075205 47 269 4.0 11.0 0.00 0.33 0.09 94 1011.9
20260507074705 47 274 5.0 11.0 0.00 0.33 0.09 94 1011.8
20260507074206 47 324 4.0 7.0 0.00 0.33 0.09 94 1011.7
20260507073705 47 258 4.0 7.0 0.00 0.33 0.09 94 1011.6
20260507073205 47 32 4.0 6.0 0.00 0.33 0.09 94 1011.5
20260507072705 47 264 3.0 8.0 0.00 0.33 0.09 94 1011.4
20260507072206 47 236 3.0 8.0 0.00 0.33 0.09 94 1011.4
20260507071205 47 277 4.0 8.0 0.00 0.33 0.09 94 1011.2
20260507070705 48 262 4.0 8.0 0.01 0.33 0.09 94 1011.1
20260507070205 48 269 4.0 7.0 0.01 0.33 0.09 94 1011.1
20260507065705 48 276 3.0 9.0 0.01 0.33 0.09 94 1011.2
20260507064706 48 279 5.0 9.0 0.01 0.33 0.09 94 1011.2
20260507064205 48 250 5.0 8.0 0.01 0.33 0.09 94 1011.1
20260507063705 47 243 5.0 8.0 0.02 0.33 0.09 94 1011.0
20260507062705 47 250 4.0 8.0 0.02 0.33 0.09 94 1010.9
20260507061705 47 224 4.0 8.0 0.02 0.33 0.09 94 1010.9
20260507061208 47 271 4.0 8.0 0.01 0.32 0.08 94 1010.9
20260507060705 47 262 3.0 7.0 0.01 0.32 0.08 94 1010.7
20260507060205 47 269 3.0 6.0 0.01 0.32 0.08 94 1010.6
20260507055705 47 321 3.0 6.0 0.01 0.32 0.08 94 1010.5
20260507055205 47 300 4.0 6.0 0.01 0.32 0.08 94 1010.4
20260507054705 47 233 3.0 6.0 0.01 0.32 0.08 94 1010.4
20260507054205 47 269 3.0 6.0 0.00 0.31 0.07 94 1010.4
20260507053705 47 222 3.0 6.0 0.00 0.31 0.07 94 1010.4
20260507052705 47 264 3.0 8.0 0.00 0.31 0.07 94 1010.3
20260507052206 47 238 3.0 8.0 0.00 0.31 0.07 94 1010.3
20260507051733 47 243 3.0 4.0 0.00 0.31 0.07 94 1010.2
20260507051205 47 305 2.0 4.0 0.00 0.31 0.07 94 1010.1
20260507050705 47 286 2.0 6.0 0.00 0.31 0.07 94 1010.0
20260507050205 47 283 3.0 6.0 0.01 0.31 0.07 94 1010.0
20260507045705 47 309 3.0 6.0 0.01 0.31 0.07 94 1009.8
20260507045205 47 300 3.0 6.0 0.01 0.31 0.07 94 1009.7
20260507044705 47 291 3.0 6.0 0.01 0.31 0.07 94 1009.6
20260507044206 47 264 3.0 7.0 0.02 0.31 0.07 94 1009.6
20260507043705 47 293 3.0 7.0 0.02 0.31 0.07 94 1009.5
20260507043205 47 308 3.0 7.0 0.02 0.31 0.07 94 1009.5
20260507042705 47 295 3.0 5.0 0.02 0.31 0.07 94 1009.5
20260507042205 47 240 3.0 5.0 0.02 0.31 0.07 94 1009.4
20260507041706 47 257 3.0 6.0 0.02 0.31 0.07 94 1009.4
20260507041205 47 259 3.0 6.0 0.03 0.31 0.07 94 1009.4
20260507040706 47 284 3.0 6.0 0.03 0.31 0.07 94 1009.3
20260507035705 47 227 2.0 5.0 0.03 0.31 0.06 94 1009.0
20260507035208 47 302 2.0 5.0 0.04 0.31 0.06 93 1009.0
20260507034705 47 297 2.0 5.0 0.04 0.31 0.06 93 1009.0
20260507034206 48 238 2.0 5.0 0.03 0.30 0.06 94 1009.0
20260507033705 48 236 3.0 5.0 0.03 0.30 0.06 94 1009.0
20260507032705 48 258 2.0 6.0 0.02 0.29 0.05 94 1009.0
20260507031705 48 248 3.0 7.0 0.02 0.29 0.05 93 1008.9
20260507031205 48 281 3.0 7.0 0.02 0.28 0.04 93 1008.9
20260507030205 48 309 3.0 7.0 0.01 0.28 0.03 94 1008.7
20260507025206 48 302 3.0 8.0 0.00 0.27 0.02 94 1008.7
20260507024705 48 276 3.0 8.0 0.00 0.27 0.02 94 1008.7
20260507024206 48 319 5.0 9.0 0.00 0.27 0.02 94 1008.7
20260507023705 48 233 5.0 9.0 0.00 0.27 0.02 93 1008.7
20260507021706 48 262 5.0 10.0 0.01 0.27 0.02 93 1008.4
20260507020705 49 250 4.0 8.0 0.01 0.27 0.02 93 1008.3
20260507015705 49 191 5.0 9.0 0.01 0.27 0.02 93 1008.1
20260507014705 49 269 4.0 8.0 0.01 0.27 0.02 93 1008.1
20260507014206 49 240 5.0 8.0 0.01 0.27 0.02 93 1008.1
20260507013705 49 277 4.0 8.0 0.01 0.27 0.02 93 1008.1
20260507013204 49 257 4.0 8.0 0.01 0.27 0.02 93 1008.1
20260507011706 49 233 4.0 9.0 0.00 0.26 0.02 93 1008.0
20260507005705 49 286 7.0 11.0 0.02 0.26 0.02 93 1008.0
20260507005206 49 252 7.0 11.0 0.02 0.26 0.02 93 1007.9
20260507004205 49 248 7.0 11.0 0.03 0.26 0.02 93 1008.0
20260507003705 49 208 6.0 10.0 0.04 0.26 0.02 93 1007.9
20260507003205 50 203 6.0 13.0 0.04 0.26 0.02 93 1007.9
20260507002706 50 239 7.0 13.0 0.05 0.26 0.02 93 1007.9
20260507001705 50 250 6.0 10.0 0.05 0.25 0.01 93 1007.8
20260507001231 50 255 5.0 8.0 0.05 0.25 0.01 93 1007.9
20260507000705 51 250 4.0 10.0 0.04 0.24 0.00 93 1007.9
20260507000206 51 264 5.0 10.0 0.04 0.24 0.24 93 1008.0
20260506235705 51 222 6.0 10.0 0.03 0.24 0.24 93 1007.9
20260506235205 51 219 5.0 9.0 0.03 0.23 0.23 93 1007.9
20260506234705 51 226 5.0 9.0 0.03 0.23 0.23 93 1007.9
20260506234204 51 283 6.0 9.0 0.03 0.22 0.22 92 1007.8
20260506233205 51 271 4.0 9.0 0.04 0.22 0.22 92 1007.8
20260506232731 51 214 4.0 9.0 0.04 0.21 0.21 92 1007.7
20260506232206 51 253 4.0 9.0 0.05 0.22 0.21 92 1007.7
20260506230205 51 245 3.0 6.0 0.06 0.21 0.20 92 1007.6
20260506225708 51 252 3.0 6.0 0.07 0.22 0.20 92 1007.6
20260506225205 51 248 3.0 6.0 0.07 0.22 0.20 92 1007.6
20260506224705 52 262 3.0 6.0 0.08 0.23 0.20 92 1007.5
20260506224237 52 258 4.0 6.0 0.07 0.23 0.19 92 1007.5
20260506223705 52 224 4.0 8.0 0.06 0.22 0.18 92 1007.5
20260506223205 52 246 4.0 9.0 0.06 0.22 0.17 92 1007.3
20260506222705 52 269 4.0 9.0 0.05 0.21 0.17 92 1007.4
20260506222205 52 257 4.0 9.0 0.04 0.21 0.16 92 1007.3
20260506221705 52 234 4.0 9.0 0.05 0.22 0.16 92 1007.2
20260506221205 52 271 5.0 9.0 0.04 0.21 0.15 92 1007.2
20260506220705 52 250 5.0 9.0 0.03 0.20 0.14 92 1007.1
20260506220205 53 248 5.0 8.0 0.03 0.20 0.13 92 1007.1
20260506215705 53 229 4.0 6.0 0.02 0.19 0.13 92 1007.1
20260506215206 53 233 4.0 7.0 0.01 0.18 0.12 91 1007.1
20260506214705 53 240 4.0 8.0 0.01 0.18 0.12 91 1007.1
20260506213205 53 252 4.0 8.0 0.01 0.18 0.12 91 1007.1
20260506212705 53 238 4.0 7.0 0.01 0.18 0.12 91 1007.0
20260506211706 53 252 5.0 9.0 0.00 0.17 0.11 91 1006.9
20260506211205 53 219 6.0 10.0 0.01 0.17 0.11 91 1006.9
20260506210705 53 222 7.0 10.0 0.01 0.17 0.11 91 1006.9
20260506210205 53 226 6.0 10.0 0.01 0.17 0.11 91 1006.9
20260506205706 53 233 6.0 8.0 0.02 0.17 0.11 90 1006.9
20260506205205 53 257 4.0 7.0 0.02 0.17 0.11 90 1006.9
20260506204705 53 245 3.0 7.0 0.02 0.17 0.11 90 1006.9
20260506204206 53 252 4.0 7.0 0.03 0.17 0.11 90 1006.8
20260506203705 53 243 3.0 7.0 0.03 0.17 0.11 90 1006.8
20260506203205 53 220 3.0 10.0 0.03 0.17 0.11 89 1006.7
20260506202706 53 212 4.0 10.0 0.04 0.17 0.11 89 1006.8
20260506202206 53 226 5.0 10.0 0.06 0.17 0.11 89 1006.7
20260506201705 53 224 6.0 9.0 0.08 0.17 0.10 89 1006.6
20260506201205 54 253 5.0 8.0 0.09 0.17 0.10 88 1006.7
20260506200706 54 269 5.0 9.0 0.10 0.17 0.10 88 1006.6
20260506200205 54 257 5.0 11.0 0.09 0.16 0.09 88 1006.5
20260506195206 54 238 7.0 15.0 0.09 0.15 0.09 87 1006.5
20260506194705 55 243 7.0 15.0 0.09 0.15 0.09 86 1006.4
20260506194204 55 257 7.0 15.0 0.08 0.14 0.08 86 1006.4
20260506193705 55 255 7.0 11.0 0.08 0.14 0.08 85 1006.4
20260506193204 56 245 5.0 11.0 0.08 0.14 0.08 84 1006.2
20260506192705 56 212 5.0 11.0 0.06 0.13 0.06 83 1006.1
20260506192206 56 245 7.0 11.0 0.04 0.10 0.04 82 1006.1
20260506191705 57 252 6.0 13.0 0.02 0.08 0.02 81 1005.9
20260506191205 57 221 6.0 15.0 0.00 0.06 0.00 80 1005.8
20260506190704 57 314 7.0 15.0 0.00 0.06 0.00 79 1005.8
20260506190205 57 255 8.0 15.0 0.00 0.06 0.00 79 1005.7
20260506185206 57 214 6.0 16.0 0.00 0.06 0.00 78 1005.5
20260506184705 57 240 7.0 16.0 0.00 0.06 0.00 77 1005.5
20260506184206 58 250 8.0 16.0 0.00 0.06 0.00 77 1005.5
20260506183706 58 207 7.0 11.0 0.00 0.06 0.00 77 1005.4
20260506183205 58 231 7.0 12.0 0.00 0.06 0.00 76 1005.4
20260506182705 58 252 6.0 13.0 0.00 0.06 0.00 75 1005.2
20260506182206 59 233 7.0 13.0 0.00 0.06 0.00 74 1005.1
20260506181707 59 226 8.0 13.0 0.00 0.07 0.00 73 1005.1
20260506180723 60 208 9.0 15.0 0.00 0.07 0.00 70 1004.9
20260506180205 60 229 7.0 15.0 0.00 0.07 0.00 68 1004.9
20260506175705 60 229 4.0 8.0 0.00 0.07 0.00 66 1004.7
20260506175206 60 250 4.0 10.0 0.00 0.07 0.00 65 1004.7
20260506174705 60 259 5.0 10.0 0.00 0.08 0.00 65 1004.7
20260506173708 60 239 5.0 11.0 0.00 0.09 0.00 65 1004.7
20260506172206 60 290 6.0 13.0 0.00 0.10 0.00 63 1004.6
20260506171705 61 226 7.0 14.0 0.00 0.12 0.00 63 1004.4
20260506171204 61 217 7.0 14.0 0.00 0.12 0.00 63 1004.3
20260506165705 61 240 8.0 14.0 0.00 0.14 0.00 62 1004.2
20260506165204 62 290 8.0 13.0 0.00 0.16 0.00 61 1004.1
20260506164705 62 222 8.0 13.0 0.00 0.17 0.00 61 1004.1
20260506164206 62 221 8.0 13.0 0.00 0.18 0.00 61 1004.0
20260506163705 62 238 7.0 14.0 0.00 0.20 0.00 61 1004.0
20260506162214 62 203 7.0 13.0 0.00 0.24 0.00 60 1004.1
20260506160232 63 219 6.0 12.0 0.00 0.32 0.00 60 1004.2
20260506155705 63 224 6.0 9.0 0.00 0.34 0.00 60 1004.2
20260506155205 63 217 6.0 9.0 0.00 0.35 0.00 63 1004.2
20260506154206 63 222 7.0 12.0 0.00 0.40 0.00 61 1004.2
20260506153705 63 220 7.0 10.0 0.00 0.50 0.00 61 1004.2
20260506152705 63 222 6.0 10.0 0.00 0.71 0.00 61 1004.3
20260506152207 63 224 6.0 10.0 0.00 0.77 0.00 63 1004.3
20260506151706 63 243 6.0 11.0 0.00 0.89 0.00 59 1004.2
20260506150705 64 212 6.0 11.0 0.00 1.02 0.00 59 1004.1
20260506150205 64 210 6.0 11.0 0.00 1.02 0.00 59 1004.1
20260506145206 65 215 7.0 11.0 0.00 1.02 0.00 57 1004.2
20260506144706 65 236 6.0 11.0 0.00 1.02 0.00 55 1004.2
20260506144208 65 212 6.0 13.0 0.00 1.02 0.00 60 1004.1
20260506143205 65 221 8.0 13.0 0.00 1.02 0.00 56 1004.2
20260506142705 64 214 7.0 13.0 0.00 1.02 0.00 58 1004.3
20260506142209 64 202 6.0 10.0 0.00 1.02 0.00 59 1004.3
20260506141706 64 245 5.0 16.0 0.00 1.02 0.00 59 1004.2
20260506141205 64 238 7.0 16.0 0.00 1.02 0.00 56 1004.2
20260506140705 64 231 6.0 9.0 0.00 1.02 0.00 56 1004.3
20260506140205 64 229 4.0 8.0 0.00 1.02 0.00 60 1004.2
20260506135205 64 161 6.0 14.0 0.00 1.02 0.00 59 1004.1
20260506134205 64 236 5.0 8.0 0.00 1.02 0.00 62 1004.2
20260506133205 64 233 5.0 11.0 0.00 1.02 0.00 61 1004.3
20260506132705 64 229 6.0 11.0 0.00 1.02 0.00 61 1004.4
20260506132206 63 245 5.0 11.0 0.00 1.02 0.00 62 1004.4
20260506131706 63 222 6.0 12.0 0.00 1.02 0.00 62 1004.4
20260506131208 64 240 7.0 12.0 0.00 1.02 0.00 60 1004.3
20260506130205 65 255 4.0 10.0 0.00 1.02 0.00 62 1004.1
20260506125705 65 245 5.0 10.0 0.00 1.02 0.00 61 1004.1
20260506125206 64 151 5.0 10.0 0.00 1.02 0.00 63 1004.2
20260506124708 64 264 4.0 11.0 0.00 1.02 0.00 62 1004.2
20260506124205 64 226 5.0 11.0 0.00 1.02 0.00 66 1004.3
20260506123708 63 219 6.0 12.0 0.00 1.02 0.00 64 1004.3
20260506123209 63 240 7.0 12.0 0.00 1.02 0.00 61 1004.4
20260506122705 63 276 6.0 12.0 0.00 1.02 0.00 63 1004.4
20260506122206 62 148 6.0 12.0 0.00 1.02 0.00 64 1004.5
20260506121706 63 201 7.0 13.0 0.00 1.02 0.00 63 1004.5
20260506121205 62 210 7.0 13.0 0.00 1.02 0.00 66 1004.5
20260506120705 63 250 8.0 13.0 0.00 1.02 0.00 64 1004.5
20260506120205 64 207 7.0 12.0 0.00 1.02 0.00 63 1004.5
20260506115705 64 229 6.0 13.0 0.00 1.02 0.00 64 1004.4
20260506114705 64 252 7.0 11.0 0.00 1.02 0.00 63 1004.5
20260506114206 64 221 5.0 7.0 0.00 1.02 0.00 66 1004.6
20260506113706 62 210 5.0 13.0 0.00 1.02 0.00 69 1004.6
20260506113206 61 245 6.0 13.0 0.00 1.02 0.00 71 1004.6
20260506112213 61 207 7.0 13.0 0.00 1.02 0.00 67 1004.7
20260506111705 62 214 8.0 13.0 0.00 1.02 0.00 68 1004.7
20260506110205 65 163 7.0 13.0 0.00 1.02 0.00 70 1004.6
20260506105205 64 160 6.0 12.0 0.00 1.02 0.00 68 1004.9
20260506104705 63 243 5.0 9.0 0.00 1.02 0.00 73 1004.9
20260506102206 62 229 8.0 13.0 0.00 1.02 0.00 72 1005.0
20260506101705 62 217 8.0 13.0 0.00 1.02 0.00 67 1005.0
20260506101205 63 231 7.0 13.0 0.00 1.02 0.00 70 1004.9
20260506100706 63 229 7.0 14.0 0.00 1.02 0.00 71 1004.9
20260506100227 63 180 7.0 14.0 0.00 1.02 0.00 71 1005.0
20260506095706 62 222 8.0 14.0 0.00 1.02 0.00 71 1004.9
20260506095205 62 210 6.0 12.0 0.00 1.02 0.00 73 1004.9
20260506094705 61 250 5.0 11.0 0.00 1.02 0.00 76 1004.7
20260506094205 60 239 6.0 11.0 0.00 1.02 0.00 76 1005.0
20260506093705 60 214 6.0 14.0 0.00 1.02 0.00 73 1005.0
20260506093205 60 253 6.0 14.0 0.00 1.02 0.00 74 1004.9
20260506092705 60 197 6.0 14.0 0.00 1.02 0.00 77 1005.0
20260506092206 60 245 5.0 9.0 0.00 1.02 0.00 75 1005.1
20260506091706 60 214 3.0 6.0 0.00 1.02 0.00 76 1005.2
20260506090706 58 240 2.0 5.0 0.00 1.02 0.00 82 1005.2
20260506085705 58 46 3.0 7.0 0.00 1.02 0.00 82 1005.4
20260506085206 58 250 3.0 7.0 0.00 1.02 0.00 83 1005.4
20260506084705 57 283 3.0 7.0 0.00 1.02 0.00 82 1005.4